Location: Unspecified
(0.0000°N, 0.0000°E)
Time: 20:56:55
(UTC+00:00)

Vanguard 2 Rocket - Visible Passes

Search period start: 19 April 2018 00:00
Search period end: 29 April 2018 00:00
Orbit: 553 x 3328 km, 32.9° (Epoch: 18 April)

Date Brightness Start Highest point End Pass type
(mag) Time Alt. Az. Time Alt. Az. Time Alt. Az.
19 Apr 9.8 01:38:19 40° ENE 01:38:19 40° ENE 01:49:00 10° ENE visible
19 Apr 9.4 03:44:08 40° WNW 03:48:50 47° NNW 04:07:53 10° NE visible
20 Apr 10.6 00:42:10 18° ENE 00:42:10 18° ENE 00:45:41 10° ENE visible
20 Apr 9.2 02:47:58 59° NNW 02:47:58 59° NNW 03:05:50 10° NE visible
20 Apr 10.3 04:53:46 11° WNW 05:07:17 29° NNW 05:23:29 10° NNE visible
21 Apr 9.7 01:51:45 45° NE 01:51:45 45° NE 02:03:24 10° NE visible
21 Apr 9.8 03:57:33 27° WNW 04:04:16 35° NNW 04:21:41 10° NE visible
22 Apr 10.4 00:55:30 23° ENE 00:55:30 23° ENE 01:00:37 10° ENE visible
22 Apr 9.5 03:01:18 43° NNW 03:01:50 43° NNW 03:19:38 10° NE visible
22 Apr 10.5 05:10:47 10° WNW 05:23:38 23° NNW 05:37:52 10° NNE visible
23 Apr 9.6 02:04:59 43° NNE 02:04:59 43° NNE 02:17:22 10° NE visible
23 Apr 10.1 04:10:47 16° WNW 04:20:12 26° NNW 04:35:38 10° NNE visible
24 Apr 10.2 01:08:38 26° NE 01:08:38 26° NE 01:14:57 10° NE visible
24 Apr 9.8 03:14:26 30° NW 03:17:24 31° NNW 03:33:22 10° NE visible
24 Apr 10.7 05:28:34 10° NW 05:40:29 19° N 05:53:10 10° NNE visible
25 Apr 10.8 00:12:16 10° ENE 00:12:16 10° ENE 00:12:24 10° ENE visible
25 Apr 9.7 02:18:03 36° N 02:18:03 36° N 02:31:05 10° NE visible
25 Apr 10.4 04:25:19 10° NW 04:36:41 21° N 04:50:07 10° NNE visible
26 Apr 10.1 01:21:38 27° NNE 01:21:38 27° NNE 01:28:51 10° NE visible
26 Apr 10.1 03:27:25 19° NW 03:33:28 24° NNW 03:47:17 10° NNE visible
27 Apr 10.6 00:25:12 13° NE 00:25:12 13° NE 00:26:40 10° NE visible
27 Apr 9.9 02:30:59 27° NNW 02:30:59 27° NNW 02:44:43 10° NNE visible
27 Apr 10.6 04:42:53 10° NW 04:53:35 18° N 05:05:40 10° NE visible
28 Apr 10.1 01:34:31 26° NNE 01:34:31 26° NNE 01:42:27 10° NE visible
28 Apr 10.4 03:40:24 10° NW 03:50:00 19° N 04:01:48 10° NNE visible
